Total_Precipitation_Accumulation
1.07 1.07 0.99 1.03 0.98 1.13 1.32 1.60 1.58 1.82 1.87 1.69 1.45 1.29 1.24 1.18 1.01 1.09 1.19 1.16 1.19 1.37 1.99 2.40 2.38 2.20 1.91 1.59 1.39 1.31 1.22 1.04 0.87 0.65 0.56 0.58 0.61 0.65 0.57 0.43 0.36 0.29 0.23
1.68 1.60 1.37 1.33 1.22 1.32 1.61 1.85 1.86 2.16 2.05 1.98 1.63 1.50 1.35 1.24 1.17 1.27 1.34 1.40 1.43 1.53 1.84 2.28 2.54 2.48 2.22 1.85 1.56 1.35 1.29 1.23 1.10 0.81 0.64 0.61 0.65 0.70 0.66 0.56 0.45 0.35 0.27
2.00 1.86 1.66 1.52 1.61 1.75 1.91 1.95 2.03 2.26 2.05 1.99 1.79 1.66 1.44 1.24 1.19 1.33 1.44 1.55 1.42 1.43 1.68 2.02 2.36 2.37 2.24 2.04 1.77 1.59 1.44 1.32 1.28 1.03 0.76 0.64 0.64 0.67 0.67 0.64 0.54 0.40 0.27
2.08 2.11 1.84 1.66 1.90 2.03 2.14 2.22 2.22 2.24 2.18 2.10 1.94 1.65 1.48 1.30 1.13 1.22 1.27 1.37 1.43 1.16 1.37 1.83 1.97 1.91 2.00 2.11 2.09 2.10 1.93 1.64 1.48 1.23 0.94 0.77 0.71 0.71 0.69 0.67 0.58 0.41 0.25
2.07 2.28 2.05 2.00 2.16 2.34 2.26 2.10 2.34 2.42 2.27 2.18 1.94 1.76 1.40 1.22 1.14 1.10 1.12 1.13 1.25 1.20 1.12 1.28 1.66 1.62 1.82 2.14 2.34 2.49 2.45 2.20 1.87 1.57 1.27 1.06 0.97 0.86 0.73 0.68 0.62 0.43 0.28
2.15 2.39 2.17 2.19 2.36 2.47 2.45 2.44 2.48 2.45 2.31 2.30 2.00 1.72 1.41 1.12 1.08 1.02 0.95 0.98 0.98 0.87 0.86 0.93 1.14 1.10 1.28 1.59 1.94 2.30 2.59 2.71 2.42 1.98 1.77 1.60 1.46 1.20 0.89 0.71 0.58 0.49 0.37
2.11 2.37 2.11 2.38 2.51 2.45 2.49 2.50 2.61 2.47 2.30 2.46 2.28 1.76 1.31 1.05 0.89 0.79 0.80 0.82 0.76 0.81 0.92 1.07 1.21 1.28 1.18 1.20 1.35 1.69 2.26 2.77 2.81 2.45 2.29 2.19 2.04 1.68 1.16 0.86 0.61 0.48 0.43
2.07 2.21 2.46 2.51 2.57 2.54 2.53 2.47 2.48 2.27 2.06 2.32 2.30 2.04 1.48 1.13 0.86 0.73 0.82 0.77 0.78 0.88 0.89 0.95 1.13 1.33 1.29 1.31 1.28 1.18 1.73 2.45 2.80 2.83 2.86 2.81 2.60 2.03 1.44 1.07 0.73 0.53 0.47
2.19 2.32 2.49 2.56 2.47 2.38 2.38 2.45 2.34 2.20 2.01 2.07 2.25 2.20 1.73 1.28 0.95 0.75 0.78 0.81 0.97 1.01 0.90 0.86 0.83 0.85 0.92 1.17 1.47 1.33 1.34 1.58 2.01 2.69 3.13 3.27 2.89 2.06 1.50 1.24 1.03 0.73 0.54
1.95 2.06 2.13 2.28 2.33 2.31 2.26 2.22 2.18 2.17 2.07 1.93 2.11 2.14 1.96 1.67 1.41 0.97 0.74 0.75 0.90 0.95 0.90 0.81 0.77 0.77 0.85 1.09 1.35 1.27 1.10 0.96 1.02 1.65 2.37 2.65 2.46 1.86 1.46 1.35 1.37 1.14 0.76
1.79 1.79 1.89 2.07 2.13 2.06 2.03 2.16 2.30 2.26 2.08 1.92 1.99 2.05 2.15 2.03 1.72 1.38 0.97 0.86 0.84 0.76 0.83 0.82 0.75 0.76 0.85 1.05 1.21 1.04 1.01 0.85 0.74 0.85 1.25 1.64 1.79 1.63 1.42 1.46 1.67 1.64 1.31
1.73 1.67 1.70 1.81 1.88 1.86 1.83 1.87 1.96 1.98 1.94 1.99 2.01 2.01 2.07 2.03 1.90 1.78 1.37 1.12 0.97 0.72 0.72 0.74 0.75 0.75 0.79 0.89 0.83 0.82 0.84 0.73 0.66 0.64 0.71 0.92 1.15 1.25 1.28 1.46 1.72 1.83 1.76
1.68 1.64 1.58 1.53 1.54 1.56 1.65 1.79 1.81 1.81 1.87 1.95 1.95 1.99 1.92 1.85 1.90 1.88 1.68 1.38 1.17 0.84 0.81 0.73 0.71 0.73 0.70 0.82 0.84 0.84 0.73 0.60 0.57 0.57 0.60 0.64 0.76 0.87 1.00 1.19 1.49 1.74 1.87
1.62 1.51 1.38 1.34 1.32 1.35 1.43 1.59 1.75 1.76 1.83 1.86 1.82 1.83 1.74 1.68 1.79 1.76 1.71 1.69 1.48 1.27 1.19 1.01 0.77 0.70 0.72 0.75 0.76 0.75 0.66 0.60 0.53 0.47 0.45 0.49 0.57 0.66 0.76 0.93 1.11 1.25 1.39
1.34 1.30 1.27 1.25 1.21 1.24 1.28 1.31 1.43 1.45 1.53 1.58 1.66 1.62 1.52 1.53 1.62 1.65 1.73 1.78 1.70 1.54 1.46 1.31 0.97 0.75 0.75 0.77 0.83 0.69 0.61 0.53 0.50 0.47 0.38 0.38 0.41 0.49 0.58 0.68 0.83 0.97 1.01
1.23 1.17 1.17 1.17 1.12 1.10 1.11 1.14 1.18 1.23 1.21 1.26 1.44 1.46 1.43 1.45 1.55 1.58 1.64 1.76 1.83 1.82 1.63 1.44 1.25 0.95 0.90 0.81 0.83 0.76 0.69 0.58 0.48 0.42 0.35 0.33 0.34 0.39 0.48 0.56 0.64 0.76 0.83
1.15 1.16 1.13 1.09 0.99 0.93 0.92 0.94 0.96 1.05 1.06 1.05 1.13 1.16 1.22 1.31 1.44 1.51 1.54 1.60 1.79 1.94 1.81 1.71 1.57 1.42 1.23 1.05 0.86 0.80 0.72 0.62 0.51 0.43 0.35 0.32 0.33 0.35 0.39 0.48 0.56 0.64 0.71
0.90 0.91 0.92 0.98 1.00 0.99 0.95 0.93 0.90 0.88 0.93 0.95 1.01 1.10 1.16 1.29 1.37 1.36 1.46 1.54 1.73 1.94 2.00 2.12 2.16 1.89 1.56 1.29 1.14 0.95 0.70 0.55 0.52 0.43 0.36 0.33 0.32 0.33 0.34 0.39 0.46 0.58 0.68
0.80 0.80 0.81 0.84 0.86 0.94 1.05 1.06 1.03 1.03 1.06 0.98 1.02 1.11 1.10 1.14 1.21 1.23 1.35 1.49 1.64 1.79 1.95 2.05 2.18 1.98 1.76 1.45 1.38 1.15 0.90 0.76 0.53 0.45 0.37 0.33 0.33 0.34 0.34 0.39 0.44 0.51 0.60
0.82 0.80 0.76 0.76 0.79 0.81 0.88 1.01 1.06 1.06 1.02 0.97 0.96 0.96 0.93 0.94 1.01 1.08 1.15 1.31 1.46 1.60 1.72 1.77 1.91 1.97 1.96 1.88 1.75 1.48 1.27 1.04 0.79 0.57 0.50 0.36 0.34 0.33 0.34 0.36 0.40 0.47 0.58
0.76 0.80 0.72 0.69 0.74 0.79 0.77 0.79 0.90 0.93 0.92 0.89 0.90 0.82 0.71 0.72 0.77 0.80 0.86 1.07 1.22 1.35 1.51 1.61 1.75 1.91 2.00 2.06 1.89 1.73 1.57 1.39 1.11 0.93 0.92 0.71 0.57 0.46 0.40 0.39 0.40 0.43 0.50
0.71 0.71 0.65 0.64 0.64 0.59 0.62 0.59 0.61 0.69 0.73 0.73 0.76 0.76 0.69 0.60 0.57 0.59 0.62 0.73 0.88 1.02 1.24 1.47 1.65 1.86 1.93 1.87 1.95 1.89 1.78 1.64 1.49 1.28 1.19 1.21 1.12 0.97 0.77 0.56 0.52 0.46 0.41
0.69 0.67 0.61 0.57 0.55 0.54 0.46 0.41 0.41 0.51 0.59 0.60 0.62 0.66 0.60 0.54 0.50 0.46 0.52 0.61 0.66 0.72 0.83 1.12 1.38 1.50 1.49 1.45 1.64 1.82 1.75 1.64 1.63 1.51 1.41 1.48 1.41 1.26 0.98 0.81 0.68 0.54 0.46
0.66 0.66 0.61 0.58 0.59 0.55 0.46 0.38 0.34 0.34 0.46 0.54 0.54 0.57 0.58 0.59 0.53 0.51 0.50 0.55 0.54 0.53 0.55 0.65 0.78 0.90 1.04 1.14 1.32 1.61 1.81 1.72 1.71 1.63 1.53 1.67 1.61 1.48 1.22 0.96 0.78 0.58 0.50
0.61 0.60 0.63 0.63 0.62 0.58 0.45 0.36 0.34 0.40 0.48 0.49 0.50 0.52 0.54 0.57 0.56 0.48 0.46 0.49 0.51 0.52 0.48 0.51 0.55 0.66 0.79 0.90 1.03 1.22 1.45 1.67 1.91 1.88 1.61 1.66 1.64 1.63 1.64 1.33 1.00 0.79 0.61
0.64 0.59 0.61 0.64 0.62 0.64 0.48 0.32 0.29 0.40 0.53 0.56 0.61 0.60 0.50 0.47 0.47 0.37 0.37 0.42 0.42 0.43 0.40 0.45 0.50 0.53 0.58 0.69 0.77 0.90 1.01 1.21 1.46 1.62 1.54 1.56 1.69 1.87 2.03 1.74 1.27 0.92 0.76